Millinocket, ME

4:45 AM EST on February 11, 2016 (GMT -0500)
Millinocket Municipal

Weather History for KMLT - February, 2014

Change the Weather History Date:

Thursday, February 13, 2014

  Actual Average Record
Temperature  
Mean Temperature 13 °F 18 °F  
Max Temperature 28 °F 28 °F 47 °F (1913)
Min Temperature -2 °F 8 °F -23 °F (1911)
Degree Days  
Heating Degree Days 52 47  
Month to date heating degree days 676 638  
Since 1 July heating degree days 5354 5384  
Cooling Degree Days 0 0  
Month to date cooling degree days 0 0  
Year to date cooling degree days 0 0  
Moisture  
Dew Point 16 °F    
Average Humidity 76    
Maximum Humidity 92    
Minimum Humidity 60    
Precipitation  
Precipitation 0.34 in 0.08 in 1.65 in (2008)
Month to date precipitation 0.68 0.81  
Year to date precipitation 4.26 3.74  
Sea Level Pressure  
Sea Level Pressure 30.02 in    
Wind  
Wind Speed 5 mph (NE)    
Max Wind Speed 20 mph    
Max Gust Speed 34 mph    
Visibility 4 miles    
Events Fog , Snow    
T = Trace of Precipitation, MM = Missing Value Source: NWS Daily Summary

Daily Weather History Graph

Daily Weather History Graph

Search for Another Location

Airport or City:

Trip Planner

Search our weather history database for the weather conditions in past years. The results will help you decide how hot, cold, wet, or windy it might be!

Date:

Astronomy

Feb. 13, 2014 Rise Set
Actual Time 6:39 AM EST 4:58 PM EST
Civil Twilight 6:09 AM EST 5:29 PM EST
Nautical Twilight 5:34 AM EST 6:04 PM EST
Astronomical Twilight 4:59 AM EST 6:38 PM EST
Moon 4:03 PM EST (2/13) 5:31 AM EST (2/13)
Length of Visible Light 11h 20m
Length of Day
10h 18m
Waxing Gibbous, 98% of the Moon is Illuminated
Feb 13
Waxing Gibbous
Feb 14
Full
Feb 22
Last Quarter
Mar 1
New
Mar 8
First Quarter

Hourly Weather History & Observations

Time (EST) Temp. Windchill Dew Point Humidity Pressure Visibility Wind Dir Wind Speed Gust Speed Precip Events Conditions
12:53 AM 1.9 °F -5.6 °F -4.0 °F 76% 30.41 in 10.0 mi SSE 3.5 mph - N/A   Clear
1:53 AM 3.9 °F - -2.9 °F 73% 30.40 in 10.0 mi Calm Calm - N/A   Clear
2:53 AM 3.0 °F -6.4 °F -4.0 °F 73% 30.38 in 10.0 mi East 4.6 mph - N/A   Clear
3:53 AM -0.0 °F - -5.1 °F 79% 30.39 in 10.0 mi Calm Calm - N/A   Clear
4:53 AM -0.0 °F - -5.1 °F 79% 30.40 in 10.0 mi Calm Calm - N/A   Mostly Cloudy
5:53 AM 1.9 °F - -4.0 °F 76% 30.39 in 10.0 mi Calm Calm - N/A   Overcast
6:53 AM 3.0 °F - -2.0 °F 80% 30.39 in 10.0 mi Calm Calm - 0.00 in   Overcast
7:53 AM 8.1 °F 1.4 °F 1.9 °F 76% 30.38 in 5.0 mi SE 3.5 mph - 0.00 in   Haze
8:53 AM 12.9 °F 6.9 °F 6.1 °F 74% 30.34 in 10.0 mi ENE 3.5 mph - N/A   Overcast
9:53 AM 19.0 °F 12.3 °F 10.0 °F 68% 30.32 in 10.0 mi East 4.6 mph - N/A   Overcast
10:37 AM 21.0 °F - 10.9 °F 65% 30.27 in 10.0 mi Calm Calm - N/A   Overcast
10:53 AM 21.9 °F - 10.9 °F 63% 30.30 in 10.0 mi Calm Calm - N/A   Overcast
11:53 AM 24.1 °F - 12.0 °F 60% 30.27 in 10.0 mi Calm Calm - N/A   Overcast
12:53 PM 25.0 °F - 14.0 °F 63% 30.23 in 10.0 mi Calm Calm - N/A   Overcast
1:46 PM 26.1 °F 21.9 °F 16.0 °F 66% 30.15 in 10.0 mi North 3.5 mph - N/A   Overcast
1:53 PM 26.1 °F - 16.0 °F 66% 30.19 in 10.0 mi Calm Calm - N/A   Overcast
2:53 PM 27.0 °F 23.0 °F 18.0 °F 69% 30.14 in 6.0 mi NNE 3.5 mph - 0.00 in Snow Light Snow
3:25 PM 27.0 °F 23.0 °F 19.0 °F 72% 30.08 in 1.8 mi North 3.5 mph - 0.00 in Snow Light Snow
3:33 PM 26.1 °F 21.9 °F 19.9 °F 78% 30.07 in 1.2 mi North 3.5 mph - 0.00 in Snow Light Snow
3:53 PM 26.1 °F 20.5 °F 21.0 °F 81% 30.09 in 1.0 mi NNE 4.6 mph - 0.00 in Snow Light Snow
4:05 PM 26.1 °F 18.4 °F 21.0 °F 81% 30.04 in 1.8 mi NNE 6.9 mph - 0.00 in Snow Light Snow
4:33 PM 25.0 °F 19.3 °F 21.0 °F 85% 30.02 in 1.0 mi NNE 4.6 mph - 0.00 in Snow Light Snow
4:44 PM 25.0 °F 19.3 °F 21.0 °F 85% 30.01 in 0.8 mi NNE 4.6 mph - 0.00 in Snow Light Snow
4:53 PM 25.0 °F 19.3 °F 21.9 °F 88% 30.04 in 0.8 mi NNE 4.6 mph - 0.00 in Snow Light Snow
5:02 PM 25.0 °F 20.7 °F 21.9 °F 88% 29.99 in 1.5 mi NNE 3.5 mph - 0.00 in Snow Light Snow
5:19 PM 26.1 °F 21.9 °F 21.9 °F 84% 29.98 in 1.2 mi NNE 3.5 mph - 0.00 in Snow Light Snow
5:34 PM 26.1 °F 19.4 °F 23.0 °F 88% 29.97 in 1.0 mi NNE 5.8 mph - 0.01 in Snow Light Snow
5:42 PM 26.1 °F 19.4 °F 23.0 °F 88% 29.97 in 0.8 mi NNE 5.8 mph - 0.01 in Snow Light Snow
5:53 PM 26.1 °F 19.4 °F 23.0 °F 88% 30.00 in 0.8 mi NNE 5.8 mph - 0.02 in Snow Light Snow
6:11 PM 26.1 °F 19.4 °F 23.0 °F 88% 29.95 in 1.0 mi NNE 5.8 mph - 0.01 in Snow Light Snow
6:19 PM 26.1 °F 19.4 °F 23.0 °F 88% 29.94 in 0.8 mi NE 5.8 mph - 0.01 in Snow Light Snow
6:38 PM 26.1 °F 17.6 °F 23.0 °F 88% 29.92 in 1.2 mi NE 8.1 mph - 0.02 in Snow Light Snow
6:53 PM 27.0 °F 18.0 °F 23.0 °F 85% 29.95 in 1.0 mi NNE 9.2 mph - 0.03 in Snow Light Snow
7:00 PM 27.0 °F 17.3 °F 23.0 °F 85% 29.90 in 0.8 mi NNE 10.4 mph 18.4 mph 0.00 in Snow Light Snow
7:13 PM 27.0 °F 18.0 °F 23.0 °F 85% 29.90 in 1.0 mi NNE 9.2 mph - 0.01 in Snow Light Snow
7:25 PM 27.0 °F 19.5 °F 23.0 °F 85% 29.88 in 0.8 mi NE 6.9 mph - 0.01 in Snow Light Snow
7:40 PM 26.1 °F 16.8 °F 23.0 °F 88% 29.86 in 0.5 mi NE 9.2 mph - 0.03 in Fog , Snow Snow
7:53 PM 26.1 °F 15.6 °F 23.0 °F 88% 29.88 in 0.5 mi NE 11.5 mph - 0.03 in Fog , Snow Snow
8:17 PM 27.0 °F 16.1 °F 23.0 °F 85% 29.81 in 0.2 mi NE 12.7 mph - 0.03 in Fog , Snow Heavy Snow
8:31 PM 27.0 °F 16.7 °F 23.0 °F 85% 29.79 in 0.5 mi NNE 11.5 mph 18.4 mph 0.05 in Fog , Snow Snow
8:41 PM 27.0 °F 15.6 °F 23.0 °F 85% 29.78 in 0.5 mi NE 13.8 mph 21.9 mph 0.05 in Fog , Snow Snow
8:53 PM 27.0 °F 16.1 °F 23.0 °F 85% 29.78 in 0.8 mi NE 12.7 mph 24.2 mph 0.06 in Snow Light Snow
9:53 PM 27.0 °F 16.1 °F 23.0 °F 85% 29.66 in 0.8 mi NE 12.7 mph 20.7 mph 0.02 in Snow Light Snow
10:53 PM 27.0 °F 16.1 °F 24.1 °F 89% 29.55 in 0.5 mi NNE 12.7 mph 21.9 mph 0.07 in Fog , Snow Snow
11:07 PM 27.0 °F 15.6 °F 24.1 °F 89% 29.48 in 1.2 mi NNE 13.8 mph 20.7 mph 0.01 in Snow Light Snow
11:26 PM 28.0 °F 16.5 °F 24.1 °F 85% 29.45 in 1.0 mi NE 15.0 mph 26.5 mph 0.04 in Snow Light Snow
11:33 PM 28.0 °F 15.7 °F 24.1 °F 85% 29.44 in 1.0 mi NNE 17.3 mph 26.5 mph 0.05 in Snow Light Snow
11:53 PM 28.0 °F 15.3 °F 25.0 °F 88% 29.43 in 1.2 mi NNE 18.4 mph 33.4 mph 0.10 in Snow Light Snow